Regional Weather Roundup
Issued by NWS Sioux Falls, SD

Home | Current Version | Previous Version | Text Only | Print | Product List | Glossary On
Versions: 1 2 3 4 5 6 7 8 9 10 11 12 13 14 15 16 17 18 19 20 21 22 23 24 25 26 27 28 29 30 31 32 33 34 35 36 37 38 39 40 41 42 43 44 45 46 47 48 49 50
000
ASUS43 KFSD 231410
RWRFSD

WEATHER ROUNDUP FOR SE SOUTH DAKOTA/SW MINNESOTA/NW IOWA
NATIONAL WEATHER SERVICE SIOUX FALLS SD
900 AM CDT SAT MAY 23 2015

NOTE: "FAIR" INDICATES FEW OR NO CLOUDS BELOW 12,000 FEET WITH NO
SIGNIFICANT WEATHER AND OR OBSTRUCTIONS TO VISIBILITY.


SDZ038>040-050-052>070-231500-
SOUTHEAST SOUTH DAKOTA

CITY           SKY/WX    TMP DP  RH WIND       PRES   REMARKS
BROOKINGS      PTSUNNY   55  48  76 SE8       30.22S
CHAMBERLAIN    DRIZZLE   51  50  98 E9        30.12F
HURON          LGT RAIN  55  48  77 SE12G21   30.17S
MADISON        FAIR      54  54 100 SE7       30.20F
MITCHELL       CLOUDY    55  51  86 E10       30.16F
SIOUX FALLS    CLOUDY    56  51  84 E9        30.19F
WINNER         CLOUDY    53  50  89 SE12      30.11R FOG
YANKTON        CLOUDY    55  50  82 E8        30.16F
$$

MNZ071-072-080-081-089-090-097-098-231500-
SOUTHWEST MINNESOTA

CITY           SKY/WX    TMP DP  RH WIND       PRES   REMARKS
FAIRMONT       CLOUDY    57  46  67 SE5       30.26R
JACKSON        CLOUDY    55  50  82 SE8       30.25S
LUVERNE        CLOUDY    59  50  72 NE5       30.22S
MARSHALL       CLOUDY    55  48  76 SE7       30.24R
MONTEVIDEO     CLOUDY    57  50  77 E3        30.25S
REDWOOD FALLS  LGT RAIN  56  50  80 NE3       30.25R
TRACY          LGT RAIN  56  52  85 S3        30.26R
WINDOM         CLOUDY    57  48  72 CALM      30.25R
WORTHINGTON    CLOUDY    57  46  67 SE9       30.23F
$$

IAZ001>003-012>014-020>022-031-032-NEZ013-014-SDZ071-231500-
NORTHWEST IOWA

CITY           SKY/WX    TMP DP  RH WIND       PRES   REMARKS
CHEROKEE       CLOUDY    61  52  72 SE9       30.20F
DENISON        CLOUDY    61  54  77 SE9       30.19F
ESTHERVILLE    CLOUDY    58  47  66 E13       30.25S
LE MARS        CLOUDY    61  52  72 SE8       30.19F
ORANGE CITY    PTSUNNY   59  50  72 SE6       30.19F
SHELDON        CLOUDY    59  59 100 SE10      30.20F
SIOUX CITY     CLOUDY    60  51  72 S9        30.18F
SPENCER        CLOUDY    60  51  72 SE12      30.24S
STORM LAKE     CLOUDY    61  50  67 SE12      30.21F
$$

ABBREVIATIONS USED IN REMARKS
   TC - TEMPERATURE IN CELSIUS
  WCI - WIND CHILL INDEX
   HX - HEAT INDEX
  VSB - VISIBILITY



USA.gov is the U.S. government's official web portal to all federal, state and local government web resources and services.